Location: Martley
(52.2333°N, 2.3667°W)
Time: 12:58:32
(UTC+00:00)

Meteor 1-18 Rocket - Pass Details

Date: 11 December 2019
Orbit: 836 x 909 km, 81.2° (Epoch: 18 January)

Event Time Altitude Azimuth Distance (km) Brightness Sun altitude
Exits shadow 05:02:34 25° 357° (N) 1,634 5.6 -27.0°
Maximum altitude 05:05:52 68° 74° (ENE) 902 4.4 -26.5°
Drops below altitude 10° 05:11:23 10° 158° (SSE) 2,455 6.9 -25.7°
Sets 05:13:49 0° 161° (SSE) 3,392 7.7 -25.3°
